Location: Bothwell
(42.3833°S, 147.0000°E)
Time: 03:30:16
(UTC+10:00)

XW-2C - Pass Details

Date: 02 May 2024
Orbit: 436 x 449 km, 97.5° (Epoch: 22 May)

Event Time Altitude Azimuth Distance (km) Brightness Sun altitude
Rises 05:13:43 0° 53° (NE) 2,455 ? -20.4°
Reaches altitude 10° 05:16:20 10° 76° (ENE) 1,599 ? -20.0°
Maximum altitude 05:18:26 16° 114° (ESE) 1,307 ? -19.6°
Drops below altitude 10° 05:20:34 10° 151° (SSE) 1,621 ? -19.2°
Sets 05:23:14 0° 174° (S) 2,511 ? -18.7°
